User: anonymous   Login
Location: Unspecified
(0.0000°N, 0.0000°E)
Time: 17:01:36
(UTC+00:00)
Language:

Saudisat 1A - Orbit

View from above orbital plane
View from above orbital plane
View from above satellite
View from above satellite

Ground track
Ground track

The orbit data is extracted from the following two-line orbital elements,

1 26546U 00057B   18344.68075259  .00000066  00000-0  22765-4 0  9995
2 26546  64.5553  80.0785 0031282 311.9160  47.9283 14.90808083987376
Epoch (UTC): 10 December 2018 16:20:17
Eccentricity: 0.0031282
inclination: 64.5553°
perigee height: 573 km
apogee height: 617 km
right ascension of ascending node: 80.0785°
argument of perigee: 311.9160°
revolutions per day: 14.90808083
mean anomaly at epoch: 47.9283°
orbit number at epoch: 98737

The dashed part of the orbit path shows where the satellite is in the earth's shadow,  

DLR